SCP
0 0 0 0 0 0 0 0 0 0 0 0 0 0 0 0 0 0 0 0 0 0 0 0 0 0 0 0 0 0 0 0 0 0 0 0 0 0 0 0 0 0 0
0 0 0 0 0 0 0 0 0 0 0 0 0 0 0 0 0 0 0 0 0 0 0 0 0 0 0 0 0 0 0 0 0 0 0 0 0 0 0 0 0 0 0
0 0 0 0 0 0 0 0 0 0 0 0 0 0 0 0 0 0 0 0 0 0 0 0 0 0 0 0 0 0 0 0 0 0 0 0 0 0 0 0 0 0 0
0 0 0 0 0 0 0 0 0 0 0 0 0 0 0 0 0 0 0 0 0 0 0 0 0 0 0 0 0 0 0 0 0 0 0 0 0 0 0 0 0 0 0
0 0 0 0 0 0 0 0 0 0 0 0 0 0 0 0 0 0 0 0 0 0 0 0 0 0 0 0 0 0 0 0 0 0 0 0 0 0 0 0 0 0 0
0 0 0 0 0 0 0 0 0 0 0 0 0 0 0 0 0 0 0 0 0 0 0 0 0 0 0 0 0 0 0 0 0 0 0 0 0 0 0 0 0 0 0
0 0 0 0 0 0 0 0 0 0 0 0 0 0 0 0 0 0 0 0 0 0 0 0 0 0 0 0 0 0 0 0 0 0 0 0 0 0 0 0 0 0 0
0 0 0 0 0 0 0 0 0 0 0 0 0 0 0 0 0 0 0 0 0 0 0 0 0 0 0 0 0 0 0 0 0 0 0 0 0 0 0 0 0 0 0
0 0 0 0 0 0 0 0 0 0 0 0 0 0 0 0 0 0 0 0 0 0 0 0 0 0 0 0 0 0 0 0 0 0 0 0 0 0 0 0 0 0 0
0 0 0 0 0 0 0 0 0 0 0 0 0 0 0 0 0 0 0 0 0 0 0 0 0 0 0 0 0 0 0 0 0 0 0 0 0 0 0 0 0 0 0
0 0 0 0 0 0 0 0 0 0 0 0 0 0 0 0 0 0 0 0 0 0 0 0 0 0 0 0 0 0 0 0 0 0 0 0 0 0 0 0 0 0 0
0 0 0 0 0 0 0 0 0 0 0 0 0 0 0 0 0 0 0 0 0 0 0 0 0 0 0 0 0 0 0 0 0 0 0 0 0 0 0 0 0 0 0
0 0 0 0 0 0 0 0 0 0 0 0 0 0 0 0 0 0 0 0 0 0 0 0 0 0 0 0 0 0 0 0 0 0 0 0 0 0 0 0 0 0 1
1 1 1 0 0 0 0 0 0 0 0 0 0 0 0 0 0 0 0 0 0 0 0 0 0 0 0 0 0 0 0 0 0 0 0 0 0 0 0 0 0 0 1
1 1 1 1 1 1 0 0 0 0 0 0 0 0 0 0 0 0 0 0 0 0 0 0 0 0 0 0 0 0 0 0 0 0 0 0 0 0 0 0 0 0 0
1 2 2 2 2 1 1 1 0 0 0 0 0 0 0 0 0 0 0 0 0 0 0 0 0 0 0 0 0 0 0 0 0 0 0 0 0 0 0 0 0 0 0
1 2 2 3 3 3 2 2 1 1 1 0 0 0 0 0 0 0 0 0 0 0 0 0 0 0 0 0 0 0 0 0 0 0 0 0 0 0 0 0 0 0 0
1 2 3 3 3 3 3 3 3 2 1 1 1 0 0 0 0 0 0 0 0 0 0 0 0 0 0 0 0 0 0 0 0 0 0 0 0 0 0 0 0 0 0
1 1 2 3 3 4 4 4 4 3 3 2 1 1 1 0 0 0 0 0 0 0 0 0 0 0 0 0 0 0 0 0 0 0 0 0 0 0 0 0 0 0 0
0 1 1 2 3 4 4 4 5 4 4 3 2 2 1 1 1 0 0 0 0 0 0 0 0 0 0 0 0 0 0 0 0 0 0 0 0 0 0 0 0 0 0
0 0 1 1 2 3 4 4 4 4 4 4 3 2 1 1 0 0 0 0 0 0 0 0 0 0 0 0 0 0 0 0 0 0 0 0 0 0 0 0 0 0 0
0 0 0 1 2 2 3 2 2 3 3 3 2 1 1 0 0 0 0 0 0 0 0 0 0 0 0 0 0 0 0 0 0 0 0 0 0 0 0 0 0 0 0
0 0 0 0 1 1 1 1 1 2 2 2 2 1 1 0 0 0 0 0 0 0 0 0 0 0 0 0 0 0 0 0 0 0 0 0 0 0 0 0 0 0 0
0 0 0 0 0 1 0 0 0 1 1 1 1 1 1 0 0 0 0 0 0 0 0 0 0 0 0 0 0 0 0 0 0 0 0 0 0 0 0 0 0 0 0
0 0 0 0 0 0 0 0 0 0 0 1 1 1 1 0 0 0 0 0 0 0 0 0 0 0 0 0 0 0 0 0 0 0 0 0 0 0 0 0 0 0 0
0 0 0 0 0 0 0 0 0 0 0 0 0 0 0 0 0 0 0 0 0 0 0 0 0 0 0 0 0 0 0 0 0 0 0 0 0 0 0 0 0 0 0
Wind_Speed
4 4 4 4 5 4 4 4 4 4 3 3 2 2 2 1 0 1 3 4 3 2 3 4 4 5 5 5 5 6 6 6 6 5 5 5 5 5 5 5 5 6 6
5 4 4 4 4 4 4 4 5 4 3 3 3 3 3 2 2 2 3 4 5 5 5 6 6 6 6 7 7 6 6 7 6 6 6 5 5 5 5 5 4 5 5
6 5 4 5 4 4 5 4 4 3 3 4 4 4 3 3 3 3 3 3 4 6 6 8 8 8 8 8 8 8 7 8 8 8 7 6 6 6 5 5 4 4 4
7 6 5 5 5 4 4 4 3 3 3 3 3 4 4 3 4 4 4 4 4 4 6 9 9 9 9 9 10 10 10 10 10 9 9 8 8 8 7 6 6 5 5
8 6 5 5 6 5 5 5 4 4 4 4 4 4 4 4 5 5 5 5 5 5 4 7 10 10 11 12 12 12 12 12 12 12 11 11 10 10 9 9 8 7 6
9 7 6 7 7 5 5 5 5 5 4 4 4 4 4 4 4 5 6 6 5 6 6 6 5 7 12 14 14 15 14 14 14 14 13 13 12 12 11 11 10 9 8
10 9 7 7 7 7 7 7 6 6 5 3 2 3 4 6 7 6 6 6 6 7 6 7 5 5 5 14 17 17 17 16 16 16 15 15 15 14 13 13 12 11 11
11 10 10 8 8 7 8 9 7 5 5 5 4 2 3 4 7 8 7 7 7 6 7 8 7 7 6 5 9 17 18 18 18 17 17 17 16 16 15 15 14 13 13
11 11 12 10 10 10 9 10 9 10 7 6 6 5 5 6 3 4 8 7 7 6 6 6 8 8 7 6 6 12 17 18 19 19 18 18 18 17 17 17 16 15 15
13 13 12 12 11 10 10 11 11 9 8 7 6 7 6 4 3 2 3 5 7 7 7 6 7 8 8 7 8 12 14 17 17 18 18 18 18 19 18 18 18 18 17
14 14 14 13 13 11 12 11 11 11 10 9 7 5 7 6 5 4 4 3 4 5 7 7 6 7 8 8 7 11 15 16 16 16 16 18 19 19 19 19 19 19 18
11 15 16 15 14 13 13 13 12 13 12 11 9 7 6 6 7 7 8 6 5 5 7 7 7 8 7 8 10 14 15 16 17 16 16 17 17 19 20 20 19 19 18
11 15 16 16 14 15 13 12 12 13 14 13 12 10 9 9 5 6 8 7 6 5 5 7 8 8 7 7 8 14 14 16 17 16 16 16 17 18 19 19 19 18 18
11 11 15 15 16 15 14 13 12 13 11 14 14 13 10 9 8 8 7 6 6 5 6 7 5 7 7 7 10 14 10 15 16 16 16 17 18 18 18 19 19 18 17
9 12 14 15 16 16 15 14 12 13 12 13 13 14 12 9 8 8 7 7 8 8 8 6 5 6 7 6 10 8 8 11 14 16 16 17 17 17 18 18 18 18 18
10 11 13 15 15 16 16 15 13 12 14 14 11 13 14 10 9 8 8 8 9 10 9 4 5 4 6 5 8 7 8 11 12 14 15 15 15 16 17 17 18 18 17
11 12 12 13 15 15 16 16 16 14 16 15 14 15 16 13 11 9 9 9 9 9 12 7 4 4 6 6 5 5 5 6 6 11 12 13 14 14 15 15 16 16 16
11 12 11 12 13 15 15 17 17 16 17 17 16 16 16 12 14 11 10 11 10 9 10 11 5 4 6 6 5 5 4 4 4 7 11 12 13 13 13 14 15 14 14
11 11 11 12 13 14 14 15 16 16 17 17 16 16 15 14 15 12 11 11 9 8 9 9 7 4 3 3 3 3 3 3 3 5 9 11 12 13 13 13 13 13 12
10 11 11 12 12 12 13 13 14 15 15 15 15 15 14 15 15 13 11 12 9 9 8 8 7 4 3 3 3 3 4 4 4 3 7 8 9 11 12 13 12 12 12
9 10 10 10 11 10 11 12 13 14 14 14 14 14 14 15 16 13 10 10 10 9 7 7 7 5 4 4 5 4 5 3 3 4 3 3 4 4 6 9 10 11 13
8 8 9 10 11 9 12 16 14 12 13 13 13 12 11 12 13 15 15 13 12 11 10 8 7 7 7 6 5 5 4 3 3 3 4 3 3 4 4 4 9 12 13
7 9 9 10 11 12 14 15 17 13 12 12 12 10 8 8 10 10 12 13 12 13 13 10 9 9 7 7 7 6 6 5 4 4 4 3 3 4 3 5 10 11 12
7 8 9 9 9 10 12 14 14 13 11 11 10 10 10 9 9 10 9 8 8 8 9 8 8 7 5 6 7 7 6 4 2 2 3 3 3 2 2 3 8 11 11
7 7 6 7 8 9 11 12 12 9 9 10 9 9 9 9 11 13 10 8 7 5 3 5 6 5 6 7 8 6 5 4 3 3 3 3 2 1 1 1 4 8 9
7 6 6 6 7 7 8 10 12 7 8 7 6 6 8 10 11 13 10 8 8 6 4 3 3 3 3 5 8 6 6 5 3 3 4 3 2 2 1 1 1 1 3
Wind_Direction
176 174 175 174 181 185 186 187 197 198 193 201 210 204 215 246 228 148 147 168 176 204 221 207 196 189 182 179 176 170 166 162 156 153 149 145 138 131 123 116 111 105 100
178 179 180 180 188 186 184 191 196 189 191 195 212 214 213 220 220 203 171 182 198 209 224 226 224 214 202 199 194 189 189 185 182 180 176 172 166 160 152 145 137 128 118
181 180 183 185 192 189 187 189 202 187 189 196 209 216 216 227 225 219 201 188 194 211 222 230 233 224 216 212 209 209 208 202 200 199 196 194 192 188 182 176 171 159 150
189 183 187 190 190 185 182 186 195 189 198 203 210 214 210 217 230 228 219 209 198 198 215 225 228 224 223 224 221 220 220 216 213 210 209 208 208 205 201 198 195 190 183
196 189 191 192 187 186 185 189 194 190 198 208 215 217 213 210 218 221 225 222 214 204 200 214 219 222 226 230 231 230 227 226 222 218 216 216 217 217 213 210 209 208 204
198 194 194 194 187 187 191 192 195 199 200 199 213 224 225 221 215 215 219 221 217 213 208 204 207 222 227 232 235 237 235 233 228 222 220 221 222 223 221 219 218 216 215
198 198 197 197 194 194 196 194 191 200 207 192 197 241 251 235 229 222 216 215 217 214 210 209 204 205 218 229 233 238 239 238 234 227 224 224 225 226 225 226 224 224 223
201 203 202 200 198 198 199 200 195 194 199 187 175 186 256 260 235 225 215 214 216 210 213 212 209 211 209 209 226 233 239 241 239 233 228 227 227 229 229 229 228 228 228
205 205 206 204 203 202 206 205 200 197 201 200 189 178 196 226 247 229 216 214 211 212 214 211 213 214 211 210 216 230 235 239 240 238 234 233 232 231 231 231 230 230 230
209 209 208 208 208 207 208 207 205 203 197 202 204 213 217 197 201 264 248 220 212 216 216 216 216 215 212 214 218 220 226 233 237 239 238 238 237 235 235 234 232 231 231
210 212 211 211 213 213 211 207 206 206 206 207 202 196 221 239 233 224 252 238 226 223 218 218 216 215 213 214 219 224 224 227 229 231 234 237 239 240 239 240 237 235 231
209 212 214 214 215 216 215 212 210 209 210 211 210 202 191 198 208 214 233 236 231 223 215 217 217 217 214 213 219 221 221 224 227 228 230 233 237 241 243 243 241 238 234
210 211 210 214 216 218 217 214 213 214 212 212 215 217 214 216 202 201 221 235 239 235 217 217 217 214 211 209 218 218 221 224 228 228 229 231 235 239 241 242 243 242 239
215 208 208 213 216 216 217 216 217 217 214 216 219 219 222 222 217 216 216 222 246 247 232 230 214 211 209 208 218 214 221 222 225 228 230 232 236 237 238 239 240 240 239
216 209 207 211 214 215 216 216 220 218 217 219 220 220 224 224 220 220 220 216 231 251 250 224 217 210 209 208 215 215 216 220 222 226 229 232 234 235 236 238 239 239 238
220 213 210 209 211 212 214 217 221 219 220 221 219 221 224 224 223 220 220 222 225 240 255 225 214 205 202 209 211 210 214 216 221 225 229 232 234 236 236 238 238 238 238
223 220 215 212 211 211 212 216 220 217 221 223 220 222 225 220 223 222 220 222 226 229 250 249 215 207 198 207 208 206 209 212 220 223 226 231 234 236 237 237 237 238 236
226 223 220 218 215 213 211 214 218 218 221 223 223 223 225 221 224 223 222 224 225 223 237 252 231 211 211 205 199 201 207 209 215 219 223 230 233 233 233 234 235 234 233
228 224 221 222 220 217 215 216 218 219 221 223 222 223 224 220 224 223 222 224 225 223 228 242 242 210 203 181 184 199 203 210 210 215 223 229 230 230 232 233 231 229 226
233 228 225 226 223 220 219 217 218 220 222 223 222 222 222 220 223 221 221 223 221 221 223 234 240 217 197 168 169 197 218 212 218 207 222 224 225 228 229 230 228 223 218
236 234 230 228 224 221 220 217 218 221 223 224 223 223 223 222 221 220 219 218 216 221 220 227 236 225 202 180 198 189 207 201 213 202 205 215 210 215 222 227 226 220 216
241 235 232 229 227 225 221 217 217 222 222 223 224 222 220 217 220 219 219 216 212 217 221 223 229 226 219 204 190 183 184 179 223 195 185 213 191 215 219 216 223 220 218
243 239 237 232 233 231 220 215 215 220 223 223 222 220 218 215 212 217 218 219 223 224 219 220 228 226 214 196 181 185 191 195 206 170 162 203 189 214 210 219 220 220 221
246 245 242 237 237 235 220 215 212 220 226 224 219 215 215 212 208 204 206 212 220 224 223 225 231 230 210 186 182 183 178 163 120 133 159 192 185 205 198 209 226 224 224
254 249 245 238 238 240 223 215 208 221 226 227 221 215 211 211 205 195 196 204 210 216 207 200 207 206 187 171 158 142 147 152 182 189 184 184 169 167 187 224 227 226 227
255 252 249 241 236 240 224 213 207 219 223 221 215 213 210 205 198 190 196 197 207 207 174 158 160 160 164 162 164 169 168 168 166 190 181 171 156 143 198 268 239 222 225